�N����,����,�~����,�C��,���x,�C��,����,���ϕ���,�ő�u�ԕ���,�ő厞����,���˗�,�I�_���x,�n�����x,�ő啗���N��,DTYPE
"21/01/16","00:10",0.0,3.2,90.1,1012.1,309.7,1.2,2.4,330.3,0.00,1.8,5.8,"00:02:40",1
"21/01/16","00:20",0.0,3.1,90.5,1012.3,304.7,0.8,2.4,309.0,0.00,1.7,6.0,"00:19:36",1
"21/01/16","00:30",0.0,2.9,90.7,1012.1,302.7,1.2,2.1,301.6,0.00,1.6,5.8,"00:29:20",1
"21/01/16","00:40",0.0,2.7,91.0,1012.1,318.2,1.5,2.7,307.8,0.00,1.4,5.8,"00:37:20",1
"21/01/16","00:50",0.0,2.7,91.3,1012.1,315.4,1.7,2.6,314.3,0.00,1.5,5.9,"00:44:48",1
"21/01/16","01:00",0.0,2.6,91.6,1011.6,305.4,1.6,2.1,315.0,0.00,1.4,5.7,"00:57:20",1
"21/01/16","01:10",0.0,2.5,91.8,1012.1,291.2,1.2,1.7,318.9,0.00,1.3,5.7,"01:03:28",1
"21/01/16","01:20",0.0,2.6,92.1,1011.9,297.1,1.3,2.7,320.1,0.00,1.5,5.5,"01:10:02",1
"21/01/16","01:30",0.0,2.2,92.3,1012.1,311.1,2.0,2.9,324.7,0.00,1.1,5.6,"01:20:56",1
"21/01/16","01:40",0.0,2.3,92.6,1011.4,298.4,1.2,2.9,320.1,0.00,1.3,5.6,"01:39:52",1
"21/01/16","01:50",0.0,2.2,92.7,1011.9,326.3,1.8,3.1,322.1,0.00,1.2,5.6,"01:41:04",1
"21/01/16","02:00",0.0,2.1,92.8,1011.9,290.2,1.2,2.1,313.7,0.00,1.1,5.6,"01:51:04",1
"21/01/16","02:10",0.0,2.1,93.2,1011.9,296.1,1.5,2.9,328.4,0.00,1.2,5.4,"02:09:28",1
"21/01/16","02:20",0.0,2.2,93.3,1011.9,326.0,2.6,3.5,325.4,0.00,1.3,5.4,"02:12:00",1
"21/01/16","02:30",0.0,2.2,93.6,1011.6,306.4,1.5,2.2,326.0,0.00,1.3,5.3,"02:29:28",1
"21/01/16","02:40",0.0,2.2,93.7,1011.2,302.3,1.6,2.4,319.8,0.00,1.3,5.4,"02:35:04",1
"21/01/16","02:50",0.0,2.3,93.7,1011.2,311.7,1.7,2.6,322.0,0.00,1.4,5.5,"02:45:28",1
"21/01/16","03:00",0.0,2.1,94.1,1011.2,275.9,1.3,2.9,319.6,0.00,1.3,5.5,"02:59:20",1
"21/01/16","03:10",0.0,2.3,94.3,1011.2,316.7,1.8,2.9,324.7,0.00,1.5,5.2,"03:06:38",1
"21/01/16","03:20",0.0,1.9,94.3,1010.7,302.1,2.2,3.4,317.3,0.00,1.1,5.2,"03:18:32",1
"21/01/16","03:30",0.0,1.7,94.7,1010.7,311.8,2.2,2.8,319.9,0.00,1.0,5.1,"03:25:04",1
"21/01/16","03:40",0.0,1.5,94.8,1010.4,289.6,1.5,2.8,320.9,0.00,0.8,5.1,"03:30:40",1
"21/01/16","03:50",0.0,1.5,95.0,1010.4,290.0,1.6,2.6,317.5,0.00,0.8,5.1,"03:48:32",1
"21/01/16","04:00",0.0,1.9,95.2,1010.7,312.0,1.7,2.5,310.9,0.00,1.3,5.1,"03:59:44",1
"21/01/16","04:10",0.0,1.5,95.2,1010.4,281.7,1.0,2.2,314.0,0.00,0.9,5.1,"04:00:16",1
"21/01/16","04:20",0.0,1.8,95.3,1010.4,268.7,1.0,3.5,332.2,0.00,1.2,5.1,"04:10:02",1
"21/01/16","04:30",0.0,1.4,95.4,1010.2,319.6,2.3,2.9,330.8,0.00,0.8,4.8,"04:20:08",1
"21/01/16","04:40",0.0,1.1,95.6,1010.2,286.4,1.2,1.8,277.9,0.00,0.5,5.1,"04:35:36",1
"21/01/16","04:50",0.0,1.5,95.9,1010.4,314.6,2.2,2.7,310.1,0.00,1.0,5.0,"04:43:20",1
"21/01/16","05:00",0.0,1.6,95.8,1010.2,295.0,1.7,2.5,318.8,0.00,1.0,4.9,"04:50:08",1
"21/01/16","05:10",0.0,1.6,96.0,1010.2,298.8,1.2,1.9,319.4,0.00,1.1,5.1,"05:09:28",1
"21/01/16","05:20",0.0,1.6,96.0,1010.0,313.5,2.2,2.9,329.3,0.00,1.1,4.8,"05:12:32",1
"21/01/16","05:30",0.0,1.6,96.2,1010.2,293.0,1.7,2.4,323.8,0.00,1.1,5.0,"05:24:56",1
"21/01/16","05:40",0.0,1.8,96.3,1010.0,304.8,2.0,3.2,325.3,0.00,1.3,4.8,"05:36:32",1
"21/01/16","05:50",0.0,2.0,96.3,1010.2,293.0,1.5,2.5,326.9,0.00,1.5,4.9,"05:40:16",1
"21/01/16","06:00",0.0,2.2,96.4,1010.4,297.1,1.5,2.2,308.1,0.00,1.7,4.9,"05:52:24",1
"21/01/16","06:10",0.0,2.5,96.5,1010.0,304.4,1.5,2.2,314.0,0.00,2.0,5.0,"06:03:44",1
"21/01/16","06:20",0.0,2.8,96.4,1010.2,304.4,1.3,2.4,325.8,0.00,2.3,4.9,"06:10:56",1
"21/01/16","06:30",0.0,2.8,96.5,1010.4,298.5,1.5,2.5,333.1,0.00,2.3,4.9,"06:26:40",1
"21/01/16","06:40",0.0,3.1,96.6,1010.2,254.2,1.1,2.1,312.2,0.00,2.7,5.0,"06:39:28",1
"21/01/16","06:50",0.0,3.4,96.6,1010.4,330.4,1.1,2.2,317.5,0.00,3.0,5.0,"06:40:16",1
"21/01/16","07:00",0.0,3.4,96.6,1010.2,278.5,1.0,2.0,299.4,0.00,3.0,5.2,"06:59:52",1
"21/01/16","07:10",0.0,3.5,96.7,1010.4,285.2,1.1,1.8,301.6,0.00,3.1,5.2,"07:00:16",1
"21/01/16","07:20",0.0,3.7,96.7,1010.4,288.3,1.0,2.1,313.5,0.00,3.3,5.0,"07:19:44",1
"21/01/16","07:30",0.0,3.9,96.8,1010.4,311.8,1.5,2.5,325.8,0.00,3.5,5.2,"07:20:56",1
"21/01/16","07:40",0.0,4.0,96.8,1010.2,295.9,1.6,2.1,313.2,0.00,3.6,5.3,"07:30:48",1
"21/01/16","07:50",0.0,4.2,96.9,1010.4,286.2,1.5,2.2,298.8,0.00,3.8,5.3,"07:44:40",1
"21/01/16","08:00",0.0,4.4,96.9,1010.7,283.6,0.7,1.2,290.5,0.00,4.0,5.2,"07:50:08",1
"21/01/16","08:10",0.0,4.8,96.9,1010.7,293.6,1.3,2.6,315.5,0.01,4.4,5.5,"08:02:24",1
"21/01/16","08:20",0.0,5.0,96.8,1010.4,259.9,0.6,1.4,284.8,0.02,4.6,5.5,"08:10:48",1
"21/01/16","08:30",0.0,5.3,96.9,1010.4,305.4,1.3,2.8,302.1,0.05,4.9,5.4,"08:28:08",1
"21/01/16","08:40",0.0,6.0,96.9,1010.9,289.4,1.3,2.0,298.1,0.07,5.6,5.9,"08:30:40",1
"21/01/16","08:50",0.0,6.6,96.7,1010.7,249.6,0.6,1.2,281.5,0.10,6.2,5.9,"08:40:16",1
"21/01/16","09:00",0.0,7.1,96.4,1010.9,242.7,0.5,1.1,286.7,0.09,6.6,5.8,"08:53:44",1
"21/01/16","09:10",0.0,7.2,96.2,1011.2,296.3,1.3,2.5,313.2,0.06,6.7,6.0,"09:03:12",1
"21/01/16","09:20",0.0,7.5,96.1,1010.7,294.5,0.7,1.4,264.4,0.10,7.0,6.1,"09:18:32",1
"21/01/16","09:30",0.0,7.7,95.7,1011.2,286.5,1.1,1.8,265.3,0.04,7.1,6.2,"09:22:08",1
"21/01/16","09:40",0.0,7.5,95.4,1010.7,319.5,1.7,2.7,327.2,0.08,6.9,6.2,"09:31:04",1
"21/01/16","09:50",0.0,8.0,95.1,1011.2,276.3,1.2,1.9,251.0,0.09,7.3,6.2,"09:48:24",1
"21/01/16","10:00",0.0,8.0,94.8,1011.4,298.5,0.8,1.2,285.9,0.07,7.3,6.5,"09:50:08",1
"21/01/16","10:10",0.0,8.5,94.3,1011.4,285.2,0.8,2.2,316.7,0.09,7.7,6.7,"10:01:36",1
"21/01/16","10:20",0.0,8.6,93.8,1011.4,276.1,0.7,1.9,299.7,0.07,7.7,6.7,"10:10:02",1
"21/01/16","10:30",0.0,8.3,92.8,1011.6,325.6,2.5,3.5,338.2,0.03,7.2,6.6,"10:25:20",1
"21/01/16","10:40",0.0,8.6,92.3,1011.4,294.9,1.6,2.2,300.3,0.05,7.5,6.7,"10:32:16",1
"21/01/16","10:50",0.0,8.6,91.0,1011.4,279.4,1.2,1.9,303.2,0.01,7.3,6.8,"10:40:32",1
"21/01/16","11:00",0.6,8.5,90.2,1011.2,246.4,1.1,2.2,158.8,0.01,7.0,6.8,"10:59:28",1
"21/01/16","11:10",0.2,8.3,90.0,1010.4,2.3,0.8,2.0,150.6,0.02,6.8,6.8,"11:00:08",1
"21/01/16","11:20",0.4,8.3,89.9,1010.7,354.5,0.7,2.2,351.9,0.03,6.8,6.7,"11:16:40",1
"21/01/16","11:30",0.4,8.4,90.4,1009.7,303.0,1.0,1.8,338.9,0.06,7.0,6.8,"11:20:32",1
"21/01/16","11:40",0.0,9.0,91.0,1009.5,264.3,1.3,2.1,295.9,0.25,7.7,7.2,"11:35:12",1
"21/01/16","11:50",0.0,10.1,91.2,1009.3,290.6,1.6,3.1,306.6,0.35,8.8,7.2,"11:41:38",1
"21/01/16","12:00",0.0,11.9,91.1,1009.3,279.7,1.3,2.5,258.0,0.33,10.5,7.6,"11:56:04",1
"21/01/16","12:10",0.0,12.1,91.2,1009.0,279.8,2.1,3.7,299.8,0.20,10.7,7.7,"12:05:12",1
"21/01/16","12:20",0.0,11.9,91.1,1009.5,295.0,2.1,3.5,343.5,0.13,10.5,7.9,"12:13:44",1
"21/01/16","12:30",0.2,11.6,91.4,1009.0,306.6,1.8,3.3,325.6,0.03,10.3,7.7,"12:23:38",1
"21/01/16","12:40",0.0,11.4,91.8,1008.8,307.2,2.3,3.7,339.6,0.03,10.2,7.8,"12:35:04",1
"21/01/16","12:50",0.6,11.3,92.0,1008.6,283.2,2.6,4.9,313.8,0.01,10.1,7.9,"12:43:20",1
"21/01/16","13:00",0.4,11.2,92.4,1008.8,268.7,2.6,4.1,214.7,0.03,10.1,8.0,"12:52:40",1
"21/01/16","13:10",0.0,11.3,92.8,1008.8,297.6,2.0,3.6,318.2,0.06,10.2,8.0,"13:03:36",1
"21/01/16","13:20",0.0,11.5,92.9,1008.8,295.5,1.7,3.1,300.1,0.09,10.4,8.0,"13:12:48",1
"21/01/16","13:30",0.0,11.6,93.4,1008.8,309.7,1.8,2.8,333.9,0.10,10.6,8.2,"13:23:36",1
"21/01/16","13:40",0.0,11.3,93.3,1008.8,304.2,2.2,4.7,309.7,0.06,10.3,8.3,"13:38:16",1
"21/01/16","13:50",0.0,11.2,93.5,1009.3,312.2,2.1,3.4,332.3,0.02,10.2,8.2,"13:40:08",1
"21/01/16","14:00",0.2,10.7,93.8,1009.3,314.0,3.2,6.3,342.6,0.05,9.8,8.2,"13:56:00",1
"21/01/16","14:10",0.0,10.9,93.8,1009.3,293.7,2.8,5.9,336.2,0.07,10.0,8.5,"14:01:52",1
"21/01/16","14:20",0.0,10.4,93.8,1009.3,314.5,3.4,5.4,315.7,0.09,9.5,8.2,"14:16:58",1
"21/01/16","14:30",0.0,9.9,93.6,1009.5,327.9,3.9,6.3,318.8,0.12,9.0,8.4,"14:29:20",1
"21/01/16","14:40",0.0,10.0,93.6,1010.0,324.3,3.6,6.6,328.4,0.12,9.1,8.4,"14:34:32",1
"21/01/16","14:50",0.0,9.8,93.1,1010.2,309.2,4.0,6.2,315.0,0.13,8.8,8.3,"14:49:20",1
"21/01/16","15:00",0.0,9.5,91.8,1009.7,331.2,3.9,7.0,322.0,0.06,8.3,8.5,"14:59:30",1
"21/01/16","15:10",0.0,9.4,90.7,1010.0,329.3,5.4,9.5,340.0,0.04,8.0,8.4,"15:04:22",1
"21/01/16","15:20",0.0,9.4,89.2,1010.0,324.8,6.9,11.4,333.9,0.03,7.8,8.2,"15:11:36",1
"21/01/16","15:30",0.0,9.4,87.6,1010.4,315.6,5.0,8.6,327.7,0.02,7.5,8.3,"15:24:24",1
"21/01/16","15:40",0.0,9.3,85.8,1010.4,320.0,4.9,7.8,339.2,0.03,7.1,7.9,"15:33:28",1
"21/01/16","15:50",0.0,9.1,84.5,1010.4,312.9,4.9,7.3,332.2,0.02,6.7,8.1,"15:46:00",1
"21/01/16","16:00",0.0,9.1,83.5,1010.4,309.8,4.9,8.2,325.3,0.02,6.5,8.2,"15:58:00",1
"21/01/16","16:10",0.0,9.0,83.1,1010.9,317.3,4.6,6.6,323.8,0.02,6.3,8.1,"16:04:40",1
"21/01/16","16:20",0.0,8.9,82.9,1010.9,326.6,4.9,6.5,335.0,0.02,6.2,8.1,"16:13:52",1
"21/01/16","16:30",0.0,8.8,82.9,1011.2,330.7,4.1,6.4,325.5,0.01,6.1,8.1,"16:20:08",1
"21/01/16","16:40",0.0,8.8,83.1,1011.2,320.7,4.1,6.4,338.8,0.01,6.1,7.9,"16:39:28",1
"21/01/16","16:50",0.0,8.6,83.0,1010.7,325.7,4.1,7.0,336.8,0.00,5.9,7.9,"16:41:20",1
"21/01/16","17:00",0.0,8.4,82.9,1011.4,327.8,3.9,7.5,332.6,0.00,5.7,7.7,"16:52:00",1
"21/01/16","17:10",0.0,8.2,83.0,1011.2,326.6,4.1,7.0,337.5,0.00,5.5,7.7,"17:07:46",1
"21/01/16","17:20",0.0,8.0,83.1,1011.2,328.7,2.7,4.5,319.3,0.00,5.3,7.6,"17:14:32",1
"21/01/16","17:30",0.0,7.6,83.5,1010.9,322.9,2.7,4.7,319.9,0.00,5.0,7.6,"17:27:20",1
"21/01/16","17:40",0.0,7.4,84.1,1010.9,313.0,2.6,4.0,324.7,0.00,4.9,7.5,"17:36:08",1
"21/01/16","17:50",0.0,6.8,84.6,1010.9,298.4,1.7,2.4,309.6,0.00,4.4,7.5,"17:41:12",1
"21/01/16","18:00",0.0,6.4,85.1,1011.2,296.6,1.7,3.1,313.6,0.00,4.1,7.5,"17:54:16",1
"21/01/16","18:10",0.0,6.2,86.1,1010.7,319.9,1.6,3.1,322.3,0.00,4.1,7.2,"18:09:36",1
"21/01/16","18:20",0.0,6.0,86.9,1010.4,301.8,2.3,4.2,320.2,0.00,4.0,7.2,"18:16:00",1
"21/01/16","18:30",0.0,5.8,87.8,1010.4,296.2,1.8,3.2,315.5,0.00,4.0,7.1,"18:20:02",1
"21/01/16","18:40",0.0,5.5,88.5,1010.7,314.5,1.8,3.1,312.6,0.00,3.8,6.8,"18:30:08",1
"21/01/16","18:50",0.0,5.2,89.2,1010.7,310.3,1.3,2.7,320.4,0.00,3.6,6.9,"18:49:20",1
"21/01/16","19:00",0.0,4.9,89.8,1010.7,288.2,1.3,2.0,295.1,0.00,3.4,6.9,"18:54:32",1
"21/01/16","19:10",0.0,5.2,90.5,1010.9,352.7,0.3,1.2,334.6,0.00,3.8,6.7,"19:01:12",1
"21/01/16","19:20",0.0,5.4,90.9,1011.4,319.1,1.6,2.9,320.7,0.00,4.1,6.8,"19:14:48",1
"21/01/16","19:30",0.2,5.6,91.6,1011.2,320.0,1.8,3.1,318.1,0.00,4.4,6.9,"19:22:16",1
"21/01/16","19:40",0.0,6.4,91.9,1011.2,307.8,3.5,4.4,329.9,0.00,5.2,6.8,"19:31:36",1
"21/01/16","19:50",0.0,6.3,91.6,1011.4,311.6,3.6,5.2,328.0,0.00,5.1,6.7,"19:49:24",1
"21/01/16","20:00",0.0,6.4,91.3,1011.6,306.0,3.7,6.3,324.6,0.00,5.1,7.0,"19:55:02",1
"21/01/16","20:10",0.0,6.2,90.8,1012.1,305.0,3.7,6.3,330.9,0.00,4.9,6.8,"20:08:44",1
"21/01/16","20:20",0.0,6.2,90.3,1012.1,313.3,4.1,6.0,304.5,0.00,4.8,6.7,"20:12:16",1
"21/01/16","20:30",0.0,6.1,89.6,1012.3,295.5,3.2,5.5,304.8,0.00,4.6,6.4,"20:20:40",1
"21/01/16","20:40",0.0,6.1,88.8,1012.3,299.5,3.0,5.0,302.7,0.00,4.4,6.7,"20:35:52",1
"21/01/16","20:50",0.0,6.1,88.2,1012.3,286.8,2.2,3.1,301.6,0.00,4.3,6.7,"20:49:12",1
"21/01/16","21:00",0.0,5.8,87.7,1012.6,300.8,2.3,4.0,320.2,0.00,4.0,6.7,"20:58:24",1
"21/01/16","21:10",0.0,5.7,87.7,1012.3,309.8,2.3,2.9,318.2,0.00,3.9,6.4,"21:05:20",1
"21/01/16","21:20",0.0,5.5,87.8,1012.6,299.6,1.1,2.0,331.4,0.00,3.7,6.6,"21:14:48",1
"21/01/16","21:30",0.2,5.4,87.9,1012.6,304.6,1.7,3.3,314.5,0.00,3.6,6.6,"21:27:28",1
"21/01/16","21:40",0.0,5.0,88.3,1012.1,319.2,2.3,2.8,328.3,0.00,3.3,6.5,"21:31:20",1
"21/01/16","21:50",0.0,5.0,88.7,1012.1,317.5,2.2,3.5,333.4,0.00,3.3,6.5,"21:47:44",1
"21/01/16","22:00",0.0,4.7,89.4,1012.1,325.0,3.0,4.7,326.4,0.00,3.1,6.5,"21:52:56",1
"21/01/16","22:10",0.0,4.5,90.1,1012.3,325.3,2.6,4.0,321.6,0.00,3.1,6.7,"22:08:48",1
"21/01/16","22:20",0.0,4.6,90.6,1012.3,313.4,2.5,3.4,325.3,0.00,3.2,6.5,"22:16:00",1
"21/01/16","22:30",0.0,4.6,91.0,1012.1,316.7,2.2,3.2,322.0,0.00,3.3,6.3,"22:20:16",1
"21/01/16","22:40",0.0,4.7,91.4,1012.3,314.8,3.0,4.2,323.3,0.00,3.5,6.4,"22:39:44",1
"21/01/16","22:50",0.0,5.0,91.4,1012.1,321.0,4.0,5.6,330.3,0.00,3.8,6.2,"22:48:16",1
"21/01/16","23:00",0.0,5.2,91.3,1012.3,325.3,5.4,7.8,327.8,0.00,3.9,6.1,"22:57:54",1
"21/01/16","23:10",0.0,5.1,91.2,1012.6,325.8,5.6,7.5,325.3,0.00,3.8,6.5,"23:02:10",1
"21/01/16","23:20",0.0,5.2,91.0,1012.6,322.7,5.0,6.7,317.6,0.00,3.9,6.3,"23:18:06",1
"21/01/16","23:30",0.0,5.2,90.8,1012.1,322.5,4.4,7.1,330.1,0.00,3.9,6.1,"23:20:16",1
"21/01/16","23:40",0.0,5.2,90.5,1012.8,329.1,3.0,4.9,327.6,0.00,3.8,6.3,"23:31:44",1
"21/01/16","23:50",0.0,5.2,90.3,1013.0,327.2,2.2,3.5,328.9,0.00,3.8,6.3,"23:47:04",1
"21/01/16","24:00",0.0,5.2,90.0,1012.8,322.7,2.1,4.0,323.1,0.00,3.7,6.2,"23:57:28",1
